Zapata, TX

9:05 PM CDT on September 25, 2016 (GMT -0500)
Zapata

Weather History for KAPY - November, 2013

Change the Weather History Date:

Tuesday, November 5, 2013

  Actual Average (KLRD) Record (KLRD)
Temperature  
Mean Temperature 78 °F 70 °F  
Max Temperature 88 °F 80 °F 97 °F (1924)
Min Temperature 67 °F 59 °F 35 °F (1908)
Degree Days  
Heating Degree Days 0 2  
Month to date heating degree days 7  
Since 1 July heating degree days 19  
Cooling Degree Days 12 6  
Month to date cooling degree days 34  
Year to date cooling degree days 4163  
Growing Degree Days 28 (Base 50)    
Moisture  
Dew Point 62 °F    
Average Humidity 58    
Maximum Humidity 81    
Minimum Humidity 37    
Precipitation  
Precipitation 0.00 in 0.04 in 2.50 in (1925)
Month to date precipitation 0.25  
Year to date precipitation 18.38  
Sea Level Pressure  
Sea Level Pressure 29.91 in    
Wind  
Wind Speed 8 mph (SE)    
Max Wind Speed 15 mph    
Max Gust Speed 23 mph    
Visibility 10 miles    
Events      
T = Trace of Precipitation, MM = Missing Value Source: NWS Daily Summary

Daily Weather History Graph

Daily Weather History Graph

Search for Another Location

Airport or City:

Trip Planner

Search our weather history database for the weather conditions in past years. The results will help you decide how hot, cold, wet, or windy it might be!

Date:

Astronomy

Nov. 05, 2013 Rise Set
Actual Time 6:49 AM CST 5:51 PM CST
Civil Twilight 6:25 AM CST 6:15 PM CST
Nautical Twilight 5:57 AM CST 6:42 PM CST
Astronomical Twilight 5:30 AM CST 7:10 PM CST
Moon 8:59 AM CST (11/5) 8:01 PM CST (11/5)
Length of Visible Light 11h 49m
Length of Day
11h 01m
Waxing Crescent, 7% of the Moon is Illuminated
Nov 5
Waxing Crescent
Nov 9
First Quarter
Nov 17
Full
Nov 25
Last Quarter
Dec 2
New

Hourly Weather History & Observations

Time (CST) Temp. Heat Index Dew Point Humidity Pressure Visibility Wind Dir Wind Speed Gust Speed Precip Events Conditions
12:15 AM 74.3 °F - 59.5 °F 60% 29.94 in 10.0 mi SE 9.2 mph - N/A   Overcast
12:55 AM 73.6 °F - 59.9 °F 62% 29.94 in 10.0 mi East 8.1 mph - N/A   Overcast
1:15 AM 73.4 °F - 59.9 °F 63% 29.94 in 10.0 mi ESE 8.1 mph - N/A   Overcast
1:35 AM 73.4 °F - 59.7 °F 62% 29.93 in 10.0 mi ESE 8.1 mph - N/A   Overcast
1:55 AM 73.6 °F - 59.5 °F 61% 29.92 in 10.0 mi ESE 6.9 mph - N/A   Overcast
2:15 AM 73.4 °F - 59.5 °F 62% 29.92 in 10.0 mi ESE 6.9 mph - N/A   Overcast
2:35 AM 73.4 °F - 59.5 °F 62% 29.91 in 10.0 mi SE 8.1 mph - N/A   Overcast
2:55 AM 72.5 °F - 59.9 °F 64% 29.91 in 10.0 mi SE 6.9 mph - N/A   Scattered Clouds
3:15 AM 71.6 °F - 60.4 °F 68% 29.91 in 10.0 mi SE 6.9 mph - N/A   Clear
3:35 AM 71.1 °F - 60.4 °F 69% 29.91 in 10.0 mi SE 5.8 mph - N/A   Clear
3:55 AM 70.7 °F - 60.8 °F 71% 29.91 in 10.0 mi SE 4.6 mph - N/A   Scattered Clouds
4:15 AM 70.0 °F - 60.8 °F 73% 29.91 in 10.0 mi ESE 4.6 mph - N/A   Mostly Cloudy
4:35 AM 69.6 °F - 60.8 °F 73% 29.90 in 10.0 mi SE 3.5 mph - N/A   Scattered Clouds
4:55 AM 68.9 °F - 61.0 °F 76% 29.90 in 10.0 mi SE 3.5 mph - N/A   Clear
5:15 AM 69.1 °F - 61.3 °F 76% 29.91 in 10.0 mi SE 4.6 mph - N/A   Clear
5:35 AM 69.3 °F - 61.7 °F 77% 29.90 in 10.0 mi SE 4.6 mph - N/A   Clear
5:55 AM 68.9 °F - 61.5 °F 77% 29.91 in 10.0 mi SE 3.5 mph - N/A   Clear
6:35 AM 67.5 °F - 61.2 °F 80% 29.91 in 10.0 mi Calm Calm - N/A   Scattered Clouds
6:55 AM 67.8 °F - 61.7 °F 81% 29.91 in 10.0 mi Calm Calm - N/A   Overcast
7:15 AM 68.9 °F - 62.1 °F 79% 29.92 in 10.0 mi Calm Calm - N/A   Overcast
7:35 AM 70.9 °F - 62.6 °F 75% 29.92 in 10.0 mi SE 3.5 mph - N/A   Overcast
7:55 AM 72.7 °F - 63.1 °F 72% 29.93 in 10.0 mi SE 5.8 mph - N/A   Overcast
8:15 AM 74.1 °F - 63.5 °F 69% 29.94 in 10.0 mi SSE 6.9 mph - N/A   Overcast
8:35 AM 74.8 °F - 63.7 °F 68% 29.94 in 10.0 mi SSE 9.2 mph - N/A   Overcast
8:55 AM 75.6 °F - 63.9 °F 67% 29.94 in 10.0 mi SE 8.1 mph - N/A   Overcast
9:15 AM 77.0 °F - 64.4 °F 65% 29.95 in 10.0 mi SSE 9.2 mph - N/A   Overcast
9:35 AM 79.0 °F - 64.0 °F 60% 29.95 in 10.0 mi SSE 13.8 mph 19.6 mph N/A   Scattered Clouds
9:55 AM 80.1 °F 81.7 °F 63.9 °F 58% 29.95 in 10.0 mi SE 8.1 mph 20.7 mph N/A   Scattered Clouds
10:15 AM 79.7 °F - 62.8 °F 56% 29.95 in 10.0 mi South 10.4 mph 16.1 mph N/A   Mostly Cloudy
10:35 AM 81.9 °F 82.9 °F 62.6 °F 52% 29.95 in 10.0 mi South 9.2 mph - N/A   Mostly Cloudy
10:55 AM 83.1 °F 83.9 °F 62.2 °F 49% 29.94 in 10.0 mi SSE 8.1 mph 19.6 mph N/A   Mostly Cloudy
11:15 AM 84.0 °F 84.4 °F 61.2 °F 46% 29.94 in 10.0 mi SSE 11.5 mph 20.7 mph N/A   Scattered Clouds
11:35 AM 84.2 °F 84.4 °F 60.4 °F 45% 29.93 in 10.0 mi SSE 11.5 mph 17.3 mph N/A   Mostly Cloudy
11:55 AM 85.5 °F 85.4 °F 60.4 °F 43% 29.92 in 10.0 mi SSE 10.4 mph 16.1 mph N/A   Overcast
12:15 PM 84.6 °F 84.8 °F 60.8 °F 45% 29.91 in 10.0 mi South 8.1 mph - N/A   Overcast
12:35 PM 86.9 °F 86.5 °F 59.9 °F 40% 29.90 in 10.0 mi SSE 8.1 mph - N/A   Mostly Cloudy
12:55 PM 85.6 °F 85.2 °F 59.7 °F 41% 29.89 in 10.0 mi South 10.4 mph 23.0 mph N/A   Overcast
1:15 PM 85.6 °F 85.4 °F 60.1 °F 42% 29.88 in 10.0 mi SE 13.8 mph 18.4 mph N/A   Overcast
1:35 PM 86.0 °F 85.9 °F 60.6 °F 42% 29.87 in 10.0 mi SSE 12.7 mph - N/A   Overcast
1:55 PM 87.1 °F 87.0 °F 60.6 °F 41% 29.86 in 10.0 mi SSE 10.4 mph 21.9 mph N/A   Overcast
2:15 PM 86.2 °F 85.9 °F 60.3 °F 41% 29.86 in 10.0 mi SE 9.2 mph 16.1 mph N/A   Overcast
2:35 PM 86.0 °F 86.1 °F 61.0 °F 43% 29.85 in 10.0 mi SSE 9.2 mph - N/A   Overcast
2:55 PM 87.8 °F 87.6 °F 61.0 °F 40% 29.85 in 10.0 mi SSE 9.2 mph - N/A   Overcast
3:15 PM 88.2 °F 87.8 °F 60.3 °F 39% 29.84 in 10.0 mi SSE 13.8 mph 20.7 mph N/A   Scattered Clouds
3:35 PM 87.6 °F 87.2 °F 59.7 °F 39% 29.84 in 10.0 mi SSE 11.5 mph 20.7 mph N/A   Clear
3:55 PM 88.2 °F 87.3 °F 59.0 °F 37% 29.83 in 10.0 mi SSE 11.5 mph 20.7 mph N/A   Clear
4:15 PM 87.8 °F 87.1 °F 59.0 °F 38% 29.83 in 10.0 mi SE 13.8 mph 21.9 mph N/A   Clear
4:35 PM 87.4 °F 86.7 °F 59.2 °F 38% 29.83 in 10.0 mi SSE 13.8 mph 19.6 mph N/A   Clear
4:55 PM 86.5 °F 86.5 °F 60.6 °F 42% 29.84 in 10.0 mi SE 15.0 mph 19.6 mph N/A   Scattered Clouds
5:15 PM 85.5 °F 85.7 °F 61.0 °F 44% 29.83 in 10.0 mi SE 10.4 mph 21.9 mph N/A   Scattered Clouds
5:35 PM 84.2 °F 84.8 °F 61.7 °F 47% 29.84 in 10.0 mi SE 11.5 mph 17.3 mph N/A   Clear
5:55 PM 83.3 °F 84.1 °F 62.1 °F 49% 29.85 in 10.0 mi SE 4.6 mph - N/A   Clear
6:15 PM 82.6 °F 83.4 °F 62.1 °F 50% 29.85 in 10.0 mi ESE 5.8 mph - N/A   Clear
6:35 PM 81.7 °F 82.7 °F 62.6 °F 52% 29.86 in 10.0 mi SE 8.1 mph - N/A   Clear
6:55 PM 81.5 °F 82.5 °F 62.4 °F 52% 29.87 in 10.0 mi SE 5.8 mph - N/A   Scattered Clouds
7:15 PM 81.7 °F 82.7 °F 62.4 °F 52% 29.89 in 10.0 mi SE 8.1 mph - N/A   Overcast
7:35 PM 81.5 °F 82.4 °F 61.9 °F 51% 29.89 in 10.0 mi SE 8.1 mph - N/A   Overcast
7:55 PM 81.1 °F 82.1 °F 62.1 °F 52% 29.90 in 10.0 mi SE 9.2 mph 16.1 mph N/A   Overcast
8:15 PM 80.4 °F 81.5 °F 62.1 °F 53% 29.91 in 10.0 mi SE 8.1 mph - N/A   Overcast
8:35 PM 79.7 °F - 63.7 °F 58% 29.91 in 10.0 mi SE 11.5 mph 17.3 mph N/A   Overcast
8:55 PM 79.2 °F - 64.6 °F 61% 29.92 in 10.0 mi SE 9.2 mph - N/A   Overcast
9:15 PM 79.0 °F - 64.8 °F 62% 29.93 in 10.0 mi SE 10.4 mph 16.1 mph N/A   Overcast
9:35 PM 78.4 °F - 64.8 °F 63% 29.94 in 10.0 mi SE 9.2 mph 19.6 mph N/A   Overcast
9:55 PM 77.9 °F - 64.6 °F 63% 29.94 in 10.0 mi SE 9.2 mph - N/A   Overcast
10:15 PM 77.2 °F - 64.6 °F 65% 29.94 in 10.0 mi SE 9.2 mph - N/A   Overcast
10:35 PM 77.0 °F - 64.8 °F 66% 29.95 in 10.0 mi SE 11.5 mph 16.1 mph N/A   Overcast
10:55 PM 76.6 °F - 65.3 °F 68% 29.95 in 10.0 mi SE 11.5 mph 16.1 mph N/A   Overcast
11:15 PM 76.1 °F - 65.7 °F 70% 29.95 in 10.0 mi SE 10.4 mph - N/A   Mostly Cloudy
11:35 PM 76.3 °F - 65.8 °F 70% 29.95 in 10.0 mi ESE 8.1 mph - N/A   Overcast
11:55 PM 76.1 °F - 66.0 °F 71% 29.95 in 10.0 mi SE 6.9 mph - N/A   Overcast